H1 CPF 2 NER 2025 7 24 9 205 01 glonass129 H2 1106402 9129 37868 2025 7 24 0 0 0 2025 7 27 23 45 0 900 1 1 0 0 0 1 H9 10 0 60880 0.00000 0 20659806.014 -9198240.276 -11713178.439 10 0 60880 900.00000 0 19326716.444 -8269677.361 -14374678.870 10 0 60880 1800.00000 0 17841555.089 -7029838.686 -16755593.805 10 0 60880 2700.00000 0 16267653.452 -5481787.190 -18809429.846 10 0 60880 3600.00000 0 14668470.333 -3641630.911 -20496108.870 10 0 60880 4500.00000 0 13104926.955 -1538109.284 -21782759.872 10 0 60880 5400.00000 0 11632870.558 788357.562 -22644364.628 10 0 60880 6300.00000 0 10300774.449 3287116.827 -23064244.384 10 0 60880 7200.00000 0 9147771.883 5899167.328 -23034378.271 10 0 60880 8100.00000 0 8202106.393 8559400.515 -22555547.939 10 0 60880 9000.00000 0 7480062.845 11199103.711 -21637306.591 10 0 60880 9900.00000 0 6985422.673 13748620.157 -20297774.276 10 0 60880 10800.00000 0 6709464.064 16140054.290 -18563264.799 10 0 60880 11700.00000 0 6631504.594 18309909.189 -16467752.988 10 0 60880 12600.00000 0 6719960.784 20201546.414 -14052194.077 10 0 60880 13500.00000 0 6933877.298 21767366.486 -11363709.789 10 0 60880 14400.00000 0 7224858.917 22970620.374 -8454658.107 10 0 60880 15300.00000 0 7539321.821 23786778.232 -5381605.808 10 0 60880 16200.00000 0 7820967.758 24204400.429 -2204224.462 10 0 60880 17100.00000 0 8013375.824 24225476.933 1015868.273 10 0 60880 18000.00000 0 8062602.247 23865223.282 4216299.376 10 0 60880 18900.00000 0 7919678.794 23151343.974 7335140.397 10 0 60880 19800.00000 0 7542905.140 22122795.936 10312093.954 10 0 60880 20700.00000 0 6899839.604 20828105.167 13089644.718 10 0 60880 21600.00000 0 5968905.434 19323307.620 15614153.910 10 0 60880 22500.00000 0 4740545.954 17669600.383 17836877.683 10 0 60880 23400.00000 0 3217880.537 15930800.597 19714891.329 10 0 60880 24300.00000 0 1416833.781 14170716.961 21211903.191 10 0 60880 25200.00000 0 -634268.294 12450541.780 22298944.148 10 0 60880 26100.00000 0 -2895619.630 10826370.453 22954920.669 10 0 60880 27000.00000 0 -5317336.823 9346949.904 23167021.690 10 0 60880 27900.00000 0 -7841287.386 8051748.136 22930971.860 10 0 60880 28800.00000 0 -10403270.457 6969424.194 22251126.063 10 0 60880 29700.00000 0 -12935462.379 6116761.661 21140402.629 10 0 60880 30600.00000 0 -15369028.335 5498110.175 19620055.106 10 0 60880 31500.00000 0 -17636793.876 5105358.871 17719285.213 10 0 60880 32400.00000 0 -19675866.902 4918443.911 15474702.316 10 0 60880 33300.00000 0 -21430101.889 4906370.197 12929637.583 10 0 60880 34200.00000 0 -22852303.618 5028705.810 10133323.986 10 0 60880 35100.00000 0 -23906077.668 5237487.593 7139956.171 10 0 60880 36000.00000 0 -24567248.832 5479458.410 4007647.028 10 0 60880 36900.00000 0 -24824786.155 5698541.948 797300.498 10 0 60880 37800.00000 0 -24681193.734 5838449.931 -2428577.548 10 0 60880 38700.00000 0 -24152348.889 5845310.254 -5607106.672 10 0 60880 39600.00000 0 -23266792.923 5670202.788 -8676272.304 10 0 60880 40500.00000 0 -22064503.314 5271493.001 -11576153.450 10 0 60880 41400.00000 0 -20595198.689 4616861.769 -14250111.766 10 0 60880 42300.00000 0 -18916248.359 3684942.528 -16645916.726 10 0 60880 43200.00000 0 -17090275.453 2466493.853 -18716783.011 10 0 60880 44100.00000 0 -15182555.974 965055.531 -20422298.196 10 0 60880 45000.00000 0 -13258324.943 -802941.343 -21729221.361 10 0 60880 45900.00000 0 -11380104.493 -2808616.040 -22612136.272 10 0 60880 46800.00000 0 -9605167.580 -5011613.668 -23053946.122 10 0 60880 47700.00000 0 -7983244.650 -7361573.381 -23046200.382 10 0 60880 48600.00000 0 -6554569.734 -9800027.305 -22589248.063 10 0 60880 49500.00000 0 -5348347.357 -12262649.889 -21692215.361 10 0 60880 50400.00000 0 -4381703.312 -14681762.688 -20372809.379 10 0 60880 51300.00000 0 -3659161.304 -16988989.074 -18656953.126 10 0 60880 52200.00000 0 -3172664.916 -19117947.486 -16578260.350 10 0 60880 53100.00000 0 -2902141.100 -21006870.530 -14177361.839 10 0 60880 54000.00000 0 -2816578.526 -22601040.937 -11501097.656 10 0 60880 54900.00000 0 -2875572.509 -23854943.474 -8601592.166 10 0 60880 55800.00000 0 -3031268.941 -24734044.272 -5535230.859 10 0 60880 56700.00000 0 -3230623.213 -25216124.971 -2361559.589 10 0 60880 57600.00000 0 -3417877.431 -25292117.985 857871.970 10 0 60880 58500.00000 0 -3537150.648 -24966410.134 4060700.014 10 0 60880 59400.00000 0 -3535032.675 -24256604.075 7184946.623 10 0 60880 60300.00000 0 -3363072.493 -23192749.329 10170207.413 10 0 60880 61200.00000 0 -2980057.142 -21816076.509 12958804.751 10 0 60880 62100.00000 0 -2353986.131 -20177288.439 15496885.472 10 0 60880 63000.00000 0 -1463659.254 -18334479.717 17735443.398 10 0 60880 63900.00000 0 -299811.840 -16350771.035 19631248.554 10 0 60880 64800.00000 0 1134249.936 -14291755.784 21147666.837 10 0 60880 65700.00000 0 2822540.635 -12222863.679 22255355.914 10 0 60880 66600.00000 0 4736819.602 -10206749.241 22932825.252 10 0 60880 67500.00000 0 6837531.522 -8300811.767 23166850.387 10 0 60880 68400.00000 0 9075226.625 -6554947.993 22952733.896 10 0 60880 69300.00000 0 11392404.154 -5009629.371 22294407.815 10 0 60880 70200.00000 0 13725705.376 -3694382.847 21204374.804 10 0 60880 71100.00000 0 16008367.835 -2626737.866 19703487.801 10 0 60880 72000.00000 0 18172841.287 -1811683.631 17820570.651 10 0 60880 72900.00000 0 20153458.435 -1241659.860 15591884.888 10 0 60880 73800.00000 0 21889050.448 -897082.467 13060450.742 10 0 60880 74700.00000 0 23325398.468 -747383.380 10275233.344 10 0 60880 75600.00000 0 24417418.238 -752521.995 7290208.062 10 0 60880 76500.00000 0 25130985.146 -864905.635 4163321.646 10 0 60880 77400.00000 0 25444321.324 -1031638.439 955368.630 10 0 60880 78300.00000 0 25348884.391 -1197003.588 -2271195.305 10 0 60880 79200.00000 0 24849718.197 -1305072.961 -5453479.383 10 0 60880 80100.00000 0 23965248.766 -1302332.194 -8529398.090 10 0 60880 81000.00000 0 22726532.413 -1140207.772 -11438900.075 10 0 60880 81900.00000 0 21175986.719 -777386.514 -14125159.678 10 0 60880 82800.00000 0 19365657.523 -181826.429 -16535705.787 10 0 60880 83700.00000 0 17355095.318 667628.921 -18623464.043 10 0 60880 84600.00000 0 15208931.346 1780103.275 -20347690.394 10 0 60880 85500.00000 0 12994256.721 3152058.211 -21674776.455 10 0 60881 0.00000 0 10777916.334 4767209.192 -22578910.094 10 0 60881 900.00000 0 8623831.358 6596992.358 -23042578.487 10 0 60881 1800.00000 0 6590466.601 8601560.405 -23056902.868 10 0 60881 2700.00000 0 4728545.394 10731268.255 -22621800.719 10 0 60881 3600.00000 0 3079110.438 12928583.376 -21745971.891 10 0 60881 4500.00000 0 1672009.646 15130340.590 -20446710.730 10 0 60881 5400.00000 0 524868.883 17270245.851 -18749549.133 10 0 60881 6300.00000 0 -357407.792 19281523.435 -16687738.950 10 0 60881 7200.00000 0 -982592.216 21099595.260 -14301585.212 10 0 60881 8100.00000 0 -1370545.674 22664680.196 -11637644.539 10 0 60881 9000.00000 0 -1552119.673 23924205.027 -8747805.450 10 0 60881 9900.00000 0 -1567593.159 24834927.078 -5688269.527 10 0 60881 10800.00000 0 -1464714.523 25364681.013 -2518453.951 10 0 60881 11700.00000 0 -1296432.882 25493678.410 700162.810 10 0 60881 12600.00000 0 -1118415.608 25215307.571 3905229.568 10 0 60881 13500.00000 0 -986457.418 24536402.026 7034722.402 10 0 60881 14400.00000 0 -953890.244 23476968.224 10028133.400 10 0 60881 15300.00000 0 -1069102.552 22069385.202 12827626.002 10 0 60881 16200.00000 0 -1373271.649 20357110.584 15379135.865 10 0 60881 17100.00000 0 -1898403.407 18392947.165 17633397.491 10 0 60881 18000.00000 0 -2665760.827 16236942.066 19546878.382 10 0 60881 18900.00000 0 -3684746.775 13954004.930 21082604.438 10 0 60881 19800.00000 0 -4952287.624 11611342.743 22210862.241 10 0 60881 20700.00000 0 -6452744.107 9275816.005 22909766.002 10 0 60881 21600.00000 0 -8158354.355 7011323.946 23165679.205 10 0 60881 22500.00000 0 -10030192.530 4876325.226 22973483.229 10 0 60881 23400.00000 0 -12019605.527 2921595.215 22336687.639 10 0 60881 24300.00000 0 -14070070.658 1188311.475 21267379.265 10 0 60881 25200.00000 0 -16119399.841 -293453.903 19786009.713 10 0 60881 26100.00000 0 -18102201.151 -1505772.707 17921023.671 10 0 60881 27000.00000 0 -19952497.390 -2443386.261 15708333.028 10 0 60881 27900.00000 0 -21606394.036 -3113695.671 13190644.775 10 0 60881 28800.00000 0 -23004685.861 -3536216.026 10416653.495 10 0 60881 29700.00000 0 -24095293.084 -3741516.301 7440112.243 10 0 60881 30600.00000 0 -24835424.029 -3769688.529 4318798.372 10 0 60881 31500.00000 0 -25193371.815 -3668410.031 1113393.599 10 0 60881 32400.00000 0 -25149867.427 -3490680.356 -2113700.065 10 0 60881 33300.00000 0 -24698929.741 -3292329.088 -5299584.995 10 0 60881 34200.00000 0 -23848174.331 -3129401.170 -8382108.187 10 0 60881 35100.00000 0 -22618565.907 -3055532.299 -11301091.294 10 0 60881 36000.00000 0 -21043623.235 -3119427.884 -13999524.558 10 0 60881 36900.00000 0 -19168109.103 -3362554.960 -16424699.260 10 0 60881 37800.00000 0 -17046260.270 -3817147.469 -18529254.663 10 0 60881 38700.00000 0 -14739632.297 -4504611.773 -20272117.309 10 0 60881 39600.00000 0 -12314650.804 -5434401.945 -21619313.039 10 0 60881 40500.00000 0 -9839973.203 -6603413.866 -22544635.046 10 0 60881 41400.00000 0 -7383772.848 -7995924.683 -23030154.621 10 0 60881 42300.00000 0 -5011060.521 -9584080.501 -23066564.799 10 0 60881 43200.00000 0 -2781156.064 -11328911.548 -22653350.792 10 0 60881 44100.00000 0 -745415.988 -13181831.524 -21798784.861 10 0 60881 45000.00000 0 1054688.488 -15086557.146 -20519746.909 10 0 60881 45900.00000 0 2589064.000 -16981366.293 -18841375.703 10 0 60881 46800.00000 0 3839997.841 -18801599.027 -16796558.909 10 0 60881 47700.00000 0 4802631.681 -20482295.795 -14425273.341 10 0 60881 48600.00000 0 5484889.461 -21960861.805 -11773789.588 10 0 60881 49500.00000 0 5906865.762 -23179645.873 -8893757.692 10 0 60881 50400.00000 0 6099703.543 -24088326.099 -5841192.690 10 0 60881 51300.00000 0 6104011.393 -24646003.305 -2675380.499 10 0 60881 52200.00000 0 5967889.359 -24822915.790 542274.132 10 0 60881 53100.00000 0 5744648.333 -24601705.086 3749435.039 10 0 60881 54000.00000 0 5490320.223 -23978181.393 6884034.599 10 0 60881 54900.00000 0 5261064.236 -22961558.199 9885463.522 10 0 60881 55800.00000 0 5110578.363 -21574147.627 12695728.332 10 0 60881 56700.00000 0 5087624.308 -19850530.155 15260555.351 10 0 60881 57600.00000 0 5233769.032 -17836233.713 17530421.401 10 0 60881 58500.00000 0 5581436.678 -15585977.004 19461492.890 10 0 60881 59400.00000 0 6152351.757 -13161549.276 21016456.896 10 0 60881 60300.00000 0 6956438.294 -10629413.249 22165229.829 10 0 60881 61200.00000 0 7991221.007 -8058128.847 22885531.292 10 0 60881 62100.00000 0 9241754.225 -5515702.456 23163313.099 10 0 60881 63000.00000 0 10681082.892 -3066969.331 22993035.588 10 0 60881 63900.00000 0 12271218.330 -771115.584 22377785.791 10 0 60881 64800.00000 0 13964590.552 1320559.284 21329234.473 10 0 60881 65700.00000 0 15705919.235 3166547.783 19867431.525 10 0 60881 66600.00000 0 17434427.988 4736629.299 18020441.943 10 0 60881 67500.00000 0 19086311.898 6012892.334 15823827.299 10 0 60881 68400.00000 0 20597357.152 6990241.104 13319980.491 10 0 60881 69300.00000 0 21905604.264 7676364.434 10557324.499 10 0 60881 70200.00000 0 22953943.646 8091167.203 7589388.766 10 0 60881 71100.00000 0 23692534.038 8265687.132 4473779.666 10 0 60881 72000.00000 0 24080940.748 8240541.577 1271064.229 10 0 60881 72900.00000 0 24089901.714 8063969.441 -1956411.353 10 0 60881 73800.00000 0 23702644.522 7789550.965 -5145744.988 10 0 60881 74700.00000 0 22915696.216 7473702.667 -8234718.730 10 0 60881 75600.00000 0 21739149.297 7173054.859 -11163029.887 10 0 60881 76500.00000 0 20196370.556 6941824.795 -13873487.263 10 0 60881 77400.00000 0 18323163.471 6829299.057 -16313147.155 10 0 60881 78300.00000 0 16166418.621 6877534.301 -18434364.978 10 0 60881 79200.00000 0 13782308.688 7119376.106 -20195740.304 10 0 60881 80100.00000 0 11234104.406 7576881.850 -21562935.509 10 0 60881 81000.00000 0 8589704.012 8260215.908 -22509351.207 10 0 60881 81900.00000 0 5918980.863 9167064.883 -23016644.952 10 0 60881 82800.00000 0 3291061.447 10282597.943 -23075083.212 10 0 60881 83700.00000 0 771648.445 11579973.797 -22683720.349 10 0 60881 84600.00000 0 -1579498.852 13021372.243 -21850402.052 10 0 60881 85500.00000 0 -3710821.784 14559505.896 -20591594.352 10 0 60882 0.00000 0 -5580863.692 16139547.112 -18932043.117 10 0 60882 900.00000 0 -7159738.679 17701388.763 -16904271.084 10 0 60882 1800.00000 0 -8430106.211 19182140.621 -14547926.028 10 0 60882 2700.00000 0 -9387616.995 20518758.523 -11908991.089 10 0 60882 3600.00000 0 -10040812.114 21650693.354 -9038875.978 10 0 60882 4500.00000 0 -10410483.971 22522449.486 -5993406.966 10 0 60882 5400.00000 0 -10528528.874 23085945.609 -2831736.166 10 0 60882 6300.00000 0 -10436342.306 23302579.753 384808.190 10 0 60882 7200.00000 0 -10182826.623 23144913.071 3593907.971 10 0 60882 8100.00000 0 -9822096.656 22597903.164 6733454.991 10 0 60882 9000.00000 0 -9410980.674 21659636.694 9742741.824 10 0 60882 9900.00000 0 -9006422.075 20341531.821 12563621.332 10 0 60882 10800.00000 0 -8662890.702 18668002.957 15141613.729 10 0 60882 11700.00000 0 -8429911.715 16675602.197 17426941.294 10 0 60882 12600.00000 0 -8349814.705 14411673.105 19375472.321 10 0 60882 13500.00000 0 -8455796.332 11932572.109 20949557.861 10 0 60882 14400.00000 0 -8770376.740 9301530.011 22118746.667 10 0 60882 15300.00000 0 -9304313.861 6586240.576 22860365.941 10 0 60882 16200.00000 0 -10056021.080 3856273.912 23159957.648 10 0 60882 17100.00000 0 -11011513.314 1180419.454 23011562.466 10 0 60882 18000.00000 0 -12144885.137 -1375933.738 22417845.786 10 0 60882 18900.00000 0 -13419302.952 -3753272.871 21390062.656 10 0 60882 19800.00000 0 -14788472.150 -5900192.565 19947861.033 10 0 60882 20700.00000 0 -16198520.491 -7775289.677 18118925.430 10 0 60882 21600.00000 0 -17590221.412 -9348643.511 15938465.744 10 0 60882 22500.00000 0 -18901466.330 -10602819.642 13448558.905 10 0 60882 23400.00000 0 -20069883.797 -11533354.747 10697353.945 10 0 60882 24300.00000 0 -21035496.328 -12148701.176 7738153.955 10 0 60882 25200.00000 0 -21743303.109 -12469632.427 4628391.278 10 0 60882 26100.00000 0 -22145678.858 -12528133.432 1428514.966 10 0 60882 27000.00000 0 -22204485.990 -12365821.667 -1799188.071 10 0 60882 27900.00000 0 -21892808.669 -12031965.427 -4991814.846 10 0 60882 28800.00000 0 -21196232.845 -11581183.386 -8087086.109 10 0 60882 29700.00000 0 -20113615.560 -11070923.733 -11024578.443 10 0 60882 30600.00000 0 -18657308.478 -10558831.188 -13746922.774 10 0 60882 31500.00000 0 -16852824.220 -10100115.420 -16200943.803 10 0 60882 32400.00000 0 -14737958.072 -9745034.563 -18338716.217 10 0 60882 33300.00000 0 -12361401.300 -9536602.644 -20118515.337 10 0 60882 34200.00000 0 -9780904.286 -9508619.996 -21505642.283 10 0 60882 35100.00000 0 -7061067.058 -9684111.561 -22473106.692 10 0 60882 36000.00000 0 -4270850.669 -10074240.200 -23002153.319 10 0 60882 36900.00000 0 -1480914.607 -10677741.302 -23082622.334 10 0 60882 37800.00000 0 1239107.491 -11480902.424 -22713136.873 10 0 60882 38700.00000 0 3823279.474 -12458088.074 -21901115.105 10 0 60882 39600.00000 0 6211869.938 -13572786.398 -20662607.746 10 0 60882 40500.00000 0 8353591.038 -14779132.253 -19021965.566 10 0 60882 41400.00000 0 10207476.589 -16023841.037 -17011344.767 10 0 60882 42300.00000 0 11744322.928 -17248470.452 -14670061.325 10 0 60882 43200.00000 0 12947634.805 -18391913.808 -12043808.197 10 0 60882 44100.00000 0 13814039.709 -19393019.156 -9183751.850 10 0 60882 45000.00000 0 14353156.432 -20193223.620 -6145526.734 10 0 60882 45900.00000 0 14586926.634 -20739092.242 -2988148.040 10 0 60882 46800.00000 0 14548440.456 -20984655.086 227135.643 10 0 60882 47700.00000 0 14280308.101 -20893445.278 3438027.251 10 0 60882 48600.00000 0 13832647.831 -20440153.523 6582380.935 10 0 60882 49500.00000 0 13260776.282 -19611830.915 9599393.796 10 0 60882 50400.00000 0 12622698.786 -18408590.769 12430767.429 10 0 60882 51300.00000 0 11976505.064 -16843780.997 15021818.019 10 0 60882 52200.00000 0 11377779.005 -14943620.262 17322515.022 10 0 60882 53100.00000 0 10877130.153 -12746313.055 19288429.995 10 0 60882 54000.00000 0 10517949.136 -10300679.820 20881578.950 10 0 60882 54900.00000 0 10334479.791 -7664357.821 22071143.632 10 0 60882 55800.00000 0 10350287.737 -4901645.600 22834059.137 10 0 60882 56700.00000 0 10577188.872 -2081078.160 23155457.551 10 0 60882 57600.00000 0 11014682.689 727169.189 23028959.577 10 0 60882 58500.00000 0 11649914.784 3453943.288 22456808.409 10 0 60882 59400.00000 0 12458171.516 6033734.015 21449842.608 10 0 60882 60300.00000 0 13403888.008 8407146.941 20027307.267 10 0 60882 61200.00000 0 14442129.564 10523126.623 18216505.348 10 0 60882 62100.00000 0 15520486.808 12340838.942 16052293.888 10 0 60882 63000.00000 0 16581307.283 13831134.321 13576432.551 10 0 60882 63900.00000 0 17564171.558 14977530.264 10836794.995 10 0 60882 64800.00000 0 18408510.868 15776671.257 7886456.397 10 0 60882 65700.00000 0 19056256.387 16238245.528 4782673.345 10 0 60882 66600.00000 0 19454407.878 16384360.904 1585775.032 10 0 60882 67500.00000 0 19557411.939 16248405.000 -1642012.929 10 0 60882 68400.00000 0 19329247.304 15873437.102 -4837788.793 10 0 60882 69300.00000 0 18745126.495 15310179.586 -7939214.194 10 0 60882 70200.00000 0 17792739.090 14614694.274 -10885747.202 10 0 60882 71100.00000 0 16472981.321 13845843.199 -13619843.027 10 0 60882 72000.00000 0 14800138.722 13062642.874 -16088096.877 10 0 60882 72900.00000 0 12801512.172 12321626.057 -18242304.728 10 0 60882 73800.00000 0 10516501.760 11674324.731 -20040419.581 10 0 60882 74700.00000 0 7995186.371 11164982.792 -21447383.150 10 0 60882 75600.00000 0 5296458.661 10828596.739 -22435815.859 10 0 60882 76500.00000 0 2485794.088 10689368.301 -22986551.302 10 0 60882 77400.00000 0 -367251.757 10759634.843 -23089004.812 10 0 60882 78300.00000 0 -3191711.974 11039322.507 -22741369.516 10 0 60882 79200.00000 0 -5917931.126 11515944.406 -21950636.936 10 0 60882 80100.00000 0 -8480227.873 12165142.662 -20732442.940 10 0 60882 81000.00000 0 -10819386.495 12951749.801 -19110743.385 10 0 60882 81900.00000 0 -12884874.120 13831322.994 -17117327.185 10 0 60882 82800.00000 0 -14636692.483 14752084.660 -14791177.753 10 0 60882 83700.00000 0 -16046788.944 15657186.067 -12177696.577 10 0 60882 84600.00000 0 -17099970.343 16487197.275 -9327805.250 10 0 60882 85500.00000 0 -17794284.390 17182717.635 -6296944.504 10 0 60883 0.00000 0 -18140855.662 17686996.476 -3143990.756 10 0 60883 900.00000 0 -18163186.285 17948453.975 69889.940 10 0 60883 1800.00000 0 -17895952.953 17922995.991 3282423.817 10 0 60883 2700.00000 0 -17383353.712 17576027.290 6431430.015 10 0 60883 3600.00000 0 -16677075.032 16884078.890 9456012.962 10 0 60883 4500.00000 0 -15833965.744 15835982.576 12297725.891 10 0 60883 5400.00000 0 -14913515.668 14433544.220 14901683.921 10 0 60883 6300.00000 0 -13975244.303 12691688.236 17217606.671 10 0 60883 7200.00000 0 -13076108.094 10638067.195 19200771.874 10 0 60883 8100.00000 0 -12268033.584 8312152.325 20812863.290 10 0 60883 9000.00000 0 -11595678.241 5763841.530 22022698.223 10 0 60883 9900.00000 0 -11094511.268 3051641.067 22806821.949 10 0 60883 10800.00000 0 -10789293.574 240494.006 23149958.620 10 0 60883 11700.00000 0 -10693019.843 -2600657.036 23045310.501 10 0 60883 12600.00000 0 -10806366.974 -5401474.629 22494699.656 10 0 60883 13500.00000 0 -11117672.632 -8092893.431 21508548.759 10 0 60883 14400.00000 0 -11603446.086 -10609741.001 20105700.105 10 0 60883 15300.00000 0 -12229391.766 -12893205.594 18313074.657 10 0 60883 16200.00000 0 -12951904.642 -14893049.552 16165175.625 10 0 60883 17100.00000 0 -13719976.795 -16569476.669 13703443.959 10 0 60883 18000.00000 0 -14477436.878 -17894575.384 10975476.051 10 0 60883 18900.00000 0 -15165429.567 -18853276.709 8034116.892 10 0 60883 19800.00000 0 -15725031.177 -19443785.539 4936444.719 10 0 60883 20700.00000 0 -16099890.878 -19677465.804 1742666.004 10 0 60883 21600.00000 0 -16238784.945 -19578182.977 -1485058.034 10 0 60883 22500.00000 0 -16097974.273 -19181130.543 -4683830.159 10 0 60883 23400.00000 0 -15643263.036 -18531189.388 -7791256.307 10 0 60883 24300.00000 0 -14851668.652 -17680889.450 -10746679.551 10 0 60883 25200.00000 0 -13712629.516 -16688060.427 -13492382.936 10 0 60883 26100.00000 0 -12228696.757 -15613272.185 -15974735.667 10 0 60883 27000.00000 0 -10415678.440 -14517174.743 -18145258.334 10 0 60883 27900.00000 0 -8302228.349 -13457852.234 -19961584.655 10 0 60883 28800.00000 0 -5928895.519 -12488304.562 -21388299.554 10 0 60883 29700.00000 0 -3346673.996 -11654164.761 -22397636.335 10 0 60883 30600.00000 0 -615113.748 -10991749.630 -22970018.931 10 0 60883 31500.00000 0 2199927.553 -10526526.455 -23094438.720 10 0 60883 32400.00000 0 5028797.077 -10272060.409 -22768659.077 10 0 60883 33300.00000 0 7800717.920 -10229486.211 -21999244.570 10 0 60883 34200.00000 0 10446506.545 -10387524.984 -20801415.389 10 0 60883 35100.00000 0 12901223.003 -10723043.776 -19198731.173 10 0 60883 36000.00000 0 15106643.601 -11202132.051 -17222611.816 10 0 60883 36900.00000 0 17013453.730 -11781647.647 -14911706.027 10 0 60883 37800.00000 0 18583070.817 -12411164.902 -12311121.297 10 0 60883 38700.00000 0 19789023.333 -13035241.080 -9471531.467 10 0 60883 39600.00000 0 20617830.706 -13595904.118 -6448180.352 10 0 60883 40500.00000 0 21069350.162 -14035255.932 -3299801.602 10 0 60883 41400.00000 0 21156578.857 -14298081.201 -87476.306 10 0 60883 42300.00000 0 20904922.352 -14334351.822 3126549.197 10 0 60883 43200.00000 0 20350962.549 -14101522.158 6280062.517 10 0 60883 44100.00000 0 19540778.626 -13566519.335 9312078.662 10 0 60883 45000.00000 0 18527892.700 -12707345.934 12164005.434 10 0 60883 45900.00000 0 17370926.843 -11514228.680 14780759.435 10 0 60883 46800.00000 0 16131069.511 -9990265.639 17111812.561 10 0 60883 47700.00000 0 14869456.698 -8151545.046 19112150.382 10 0 60883 48600.00000 0 13644576.126 -6026730.417 20743125.636 10 0 60883 49500.00000 0 12509801.453 -3656128.253 21973191.979 10 0 60883 50400.00000 0 11511157.928 -1090275.486 22778505.245 10 0 60883 51300.00000 0 10685411.303 1611896.806 23143381.648 10 0 60883 52200.00000 0 10058558.705 4385249.835 23060604.632 10 0 60883 53100.00000 0 9644783.897 7160885.796 22531574.428 10 0 60883 54000.00000 0 9445920.588 9868760.125 21566296.797 10 0 60883 54900.00000 0 9451446.865 12440351.561 20183209.961 10 0 60883 55800.00000 0 9639012.235 14811281.296 18408851.381 10 0 60883 56700.00000 0 9975476.768 16923773.902 16277368.756 10 0 60883 57600.00000 0 10418420.587 18728858.386 13829882.474 10 0 60883 58500.00000 0 10918062.007 20188217.607 11113709.691 10 0 60883 59400.00000 0 11419505.009 21275608.141 8181463.110 10 0 60883 60300.00000 0 11865222.206 21977789.938 5090040.424 10 0 60883 61200.00000 0 12197668.611 22294925.242 1899523.099 10 0 60883 62100.00000 0 12361915.115 22240428.386 -1327994.359 10 0 60883 63000.00000 0 12308188.838 21840271.378 -4529621.549 10 0 60883 63900.00000 0 11994210.695 21131773.466 -7642910.974 10 0 60883 64800.00000 0 11387228.635 20161925.340 -10607092.860 10 0 60883 65700.00000 0 10465657.576 18985318.856 -13364280.096 10 0 60883 66600.00000 0 9220253.843 17661770.560 -15860617.733 10 0 60883 67500.00000 0 7654771.823 16253740.694 -18047352.658 10 0 60883 68400.00000 0 5786072.942 14823658.353 -19881800.840 10 0 60883 69300.00000 0 3643680.832 13431267.491 -21328191.818 10 0 60883 70200.00000 0 1268800.455 12131107.372 -22358373.059 10 0 60883 71100.00000 0 -1287157.903 10970234.970 -22952359.979 10 0 60883 72000.00000 0 -3964487.646 9986286.035 -23098720.954 10 0 60883 72900.00000 0 -6697447.296 9205956.528 -22794790.321 10 0 60883 73800.00000 0 -9416779.050 8643967.693 -22046706.095 10 0 60883 74700.00000 0 -12052378.424 8302557.006 -20869272.803 10 0 60883 75600.00000 0 -14536003.016 8171514.529 -19285653.477 10 0 60883 76500.00000 0 -16803907.249 8228760.821 -17326898.199 10 0 60883 77400.00000 0 -18799293.438 8441439.583 -15031319.811 10 0 60883 78300.00000 0 -20474477.897 8767476.464 -12443730.338 10 0 60883 79200.00000 0 -21792683.100 9157536.071 -9614554.156 10 0 60883 80100.00000 0 -22729383.058 9557292.704 -6598836.288 10 0 60883 81000.00000 0 -23273148.033 9909917.639 -3455165.880 10 0 60883 81900.00000 0 -23425955.885 10158677.178 -244536.358 10 0 60883 82800.00000 0 -23202959.624 10249531.599 2970835.339 10 0 60883 83700.00000 0 -22631723.325 10133625.680 6128707.652 10 0 60883 84600.00000 0 -21750960.449 9769566.492 9168008.650 10 0 60883 85500.00000 0 -20608828.914 9125393.472 12030003.299 99